Overview Statistics Trail Chart Weather Telemetry Raw packets
 

This is the latest recevied weather packets stored in our database for station/object KF0WJA. If no packets are shown the sender has not sent any weather packets the latest 10 day(s).

<< 107 108 109 110 111 112 113 >>
Time Temp. Humidity Pressure Rain* Wind** Luminosity Snow
1787850050 30.56° C 52% 1022.9 hPa 0 mm - 600 W/m² -
1787849749 30° C 53% 1023.1 hPa 0 mm - 551 W/m² -
1787849445 30.56° C 52% 1022.8 hPa 0 mm - 530 W/m² -
1787849143 30° C 54% 1023 hPa 0 mm - 563 W/m² -
1787848838 30.56° C 52% 1022.9 hPa 0 mm - 566 W/m² -
1787848538 30° C 52% 1023 hPa 0 mm - 549 W/m² -
1787848232 30° C 53% 1023 hPa 0 mm - 555 W/m² -
1787847932 30° C 52% 1023.2 hPa 0 mm - 505 W/m² -
1787847632 30.56° C 51% 1023.2 hPa 0 mm - 543 W/m² -
1787847333 30° C 53% 1022.8 hPa 0 mm - 554 W/m² -
1787847036 29.44° C 52% 1023.1 hPa 0 mm - 656 W/m² -
1787846724 28.89° C 53% 1023 hPa 0 mm - 556 W/m² -
1787846420 29.44° C 52% 1023 hPa 0 mm - 599 W/m² -
1787846115 28.89° C 53% 1022.9 hPa 0 mm - 596 W/m² -
1787845810 28.89° C 53% 1022.9 hPa 0 mm - 447 W/m² -
1787845506 28.89° C 54% 1023 hPa 0 mm - 538 W/m² -
1787845201 28.33° C 55% 1023 hPa 0 mm - 488 W/m² -
1787844897 27.78° C 56% 1022.6 hPa 0 mm - 532 W/m² -
1787844596 28.33° C 55% 1022.8 hPa 0 mm - 504 W/m² -
1787844292 28.33° C 56% 1022.4 hPa 0 mm - 430 W/m² -
1787843990 27.78° C 58% 1022.5 hPa 0 mm - 341 W/m² -
1787843686 27.78° C 58% 1022.6 hPa 0 mm - 355 W/m² -
1787843381 27.78° C 59% 1022.6 hPa 0 mm - 285 W/m² -
1787843078 27.78° C 58% 1022.3 hPa 0 mm - 310 W/m² -
1787842777 27.78° C 59% 1022.5 hPa 0 mm - 250 W/m² -

* Rain latest hour (hover to see other rain measurements)
** Current wind speed in m/s (hover to see current wind gust speed)